Location: Gebenbach
(49.5378°N, 11.8735°E)
Time: 03:46:19
(UTC+00:00)

NOSS 3-3 (A) - Pass Details

Date: 29 October 2020
Orbit: 826 x 1387 km, 63.4° (Epoch: 22 November)

Event Time Altitude Azimuth Distance (km) Brightness Sun altitude
Rises 18:04:28 0° 218° (SW) 3,427 7.3 -21.5°
Reaches altitude 10° 18:06:49 10° 218° (SW) 2,538 6.6 -21.9°
Maximum altitude 18:12:43 86° 130° (SE) 965 3.8 -22.8°
Enters shadow 18:16:11 30° 44° (NE) 1,725 5.0 -23.4°
